Volver al catálogo

ANTIE 03

ActivoCienciaSSO
NORAD 69541·PAYLOAD·🇨🇳 China
Este nombre de satélite aún no ha sido confirmado por fuentes oficiales.

Lanzado Jun 15, 2026 desde Jiuquan Satellite Launch Center

Loading…

Próximos Pases (próximas 24 horas)

TLE

ActualizadoSource: Space-Track

Época: Sep 14, 2026, 03:12 UTC

1 69541U 26134D   26257.13335100  .00004114  00000-0  26189-3 0  9998
2 69541  97.6959 327.6414 0019497 332.2350  27.7836 15.09195004 13727

Sigue ANTIE 03 en tiempo real con AllMySat

Download on the App Store